Torna al catalogo

FENGYUN 1C DEB

AttivoLEO
NORAD 30153·DEBRIS·🇨🇳 China

Lanciato May 10, 1999 da Taiyuan Satellite Launch Center

Loading…

Prossimi Passaggi (prossime 24 ore)

TLE

AggiornatoSource: Space-Track

Epoca: Sep 14, 2026, 00:08 UTC

1 30153U 99025TJ  26257.00575766  .00000465  00000-0  43534-3 0  9992
2 30153 100.4683 281.1389 0198639  26.5249   3.6360 13.79306192985698

Traccia FENGYUN 1C DEB in tempo reale con AllMySat

Download on the App Store